User: anonymous   Login
Location: Dayton
(39.7590°N, 84.1920°W)
Time: 16:00:40
(UTC-05:00)
Language:

Cosmos 1939 Rocket - Orbit

View from above orbital plane
View from above orbital plane
View from above satellite
View from above satellite

Ground track
Ground track

The orbit data is extracted from the following two-line orbital elements,

1 19046U 88032B   15030.76396854  .00002446  00000-0  19552-3 0  1182
2 19046 097.6189 085.9951 0042200 045.2749 315.1898 15.00462776442315
Epoch (UTC): 30 January 2015 18:20:06
Eccentricity: 0.0042200
inclination: 97.6189°
perigee height: 536 km
apogee height: 595 km
right ascension of ascending node: 85.9951°
argument of perigee: 45.2749°
revolutions per day: 15.00462776
mean anomaly at epoch: 315.1898°
orbit number at epoch: 44231

The dashed part of the orbit path shows where the satellite is in the earth's shadow,  

DLR